This demonstration page uses our WeatherBlox Daily Observations layout. Learn more.

Left ArrowRight Arrow

38.20091, -84.87328

Hourly Observations for August 30, 2021

Temp ( °F °C ) Dew Point ( °F °C ) Humidity (%) Winds ( mph kmh ) Pressure ( in mb ) Visibility ( mi km ) Precip ( " mm )
12:53 am 00:53 Clear 77 25 72 22.2 85 85 SW 6 9 30.04 1017 10 16 0.00 0.00
1:53 am 01:53 Clear 76 24.4 72 22.2 88 88 SW 7 11 30.03 1017 10 16 0.00 0.00
2:53 am 02:53 Clear 74 23.3 72 22.2 94 94 SW 6 9 30.01 1016 10 16 0.00 0.00
3:11 am 03:11 Clear with Nearby Thunderstorms 75 23.9 71 21.7 88 88 SSW 5 7 30.00 1016 10 16 0.00 0.00
3:26 am 03:26 Clear 75 23.9 71 21.7 88 88 SSW 5 7 30.00 1016 10 16 0.00 0.00
3:53 am 03:53 Clear 75 23.9 71 21.7 88 88 Calm 30.00 1016 10 16 0.00 0.00
4:53 am 04:53 Clear 73 22.8 71 21.7 94 94 SW 5 7 30.00 1016 10 16 0.00 0.00
5:53 am 05:53 Clear 74 23.3 71 21.7 91 91 W 3 6 30.01 1016 10 16 0.00 0.00
6:53 am 06:53 Partly Cloudy 73 22.8 70 21.1 90 90 Calm 30.01 1016 10 16 0.00 0.00
7:53 am 07:53 Partly Cloudy 74 23.3 71 21.7 91 91 Calm 30.01 1016 10 16 0.00 0.00
8:24 am 08:24 Mostly Cloudy with Rain 75 23.9 72 22.2 90 90 W 13 20 30.00 1016 2 3 0.06 1.52
8:36 am 08:36 Cloudy with Rain 76 24.4 70 21.1 82 82 WNW 7 11 30.00 1016 3 5 0.13 3.30
8:53 am 08:53 Cloudy 76 24.4 72 22.2 88 88 Calm 30.01 1016 10 16 0.13 3.30
9:53 am 09:53 Cloudy 77 25 74 23.3 90 90 SE 5 7 30.02 1017 10 16 0.00 0.00
10:31 am 10:31 Cloudy 79 26.1 73 22.8 82 82 ESE 5 7 30.01 1016 10 16 0.00 0.00
10:53 am 10:53 Mostly Cloudy 80 26.7 72 22.2 76 76 Calm 30.02 1017 10 16 0.00 0.00
11:07 am 11:07 Mostly Cloudy 80 26.7 73 22.8 79 79 E 3 6 30.00 1016 10 16 0.00 0.00
11:17 am 11:17 Partly Cloudy 81 27.2 72 22.2 74 74 Calm 29.99 1016 10 16 0.00 0.00
11:25 am 11:25 Mostly Cloudy 80 26.7 72 22.2 76 76 E 3 6 29.99 1016 10 16 0.00 0.00
11:32 am 11:32 Mostly Cloudy 81 27.2 72 22.2 74 74 Calm 29.99 1016 10 16 0.00 0.00
11:48 am 11:48 Mostly Cloudy 82 28 73 23 74 74 Calm 30.00 1016 10 16 0.00 0.00
11:53 am 11:53 Mostly Cloudy 82 27.8 73 22.8 74 74 NE 5 7 30.01 1016 10 16 0.00 0.00
12:32 pm 12:32 Mostly Cloudy with Nearby Thunderstorms 83 28.3 73 22.8 72 72 N 7 11 29.98 1015 10 16 0.00 0.00
12:44 pm 12:44 Cloudy with Thunderstorms 75 23.9 70 21.1 84 84 N 14 22 30.00 1016 7 11 0.01 0.25
12:49 pm 12:49 Cloudy with Strong Thunderstorms 73 23 70 21 89 89 NNE 14 22 29.99 1016 2 3 0.11 2.79
12:53 pm 12:53 Cloudy with Strong Thunderstorms 72 22.2 70 21.1 94 94 N 12 19 29.99 1016 1 2 0.15 3.81
12:59 pm 12:59 Cloudy with Strong Thunderstorms 71 21.7 69 20.6 94 94 NNW 9 15 30.02 1016 1 2 0.07 1.78
1:09 pm 13:09 Cloudy with Strong Thunderstorms 71 21.7 70 21.1 96 96 W 7 11 30.03 1017 1 1 0.22 5.59
1:16 pm 13:16 Cloudy with Strong Thunderstorms 71 21.7 69 20.6 94 94 NNW 8 13 30.01 1016 0 0 0.47 11.94
1:21 pm 13:21 Cloudy with Strong Thunderstorms 71 21.7 69 20.6 94 94 W 3 6 30.01 1016 1 1 0.54 13.72
1:31 pm 13:31 Cloudy with Strong Thunderstorms 70 21.1 69 20.6 97 97 SSE 3 6 30.00 1016 1 2 0.60 15.24
1:36 pm 13:36 Cloudy with Thunderstorms 71 21.7 68 20 90 90 SSW 3 6 29.99 1015 3 5 0.61 15.49
1:53 pm 13:53 Cloudy with Thunderstorms 71 21.7 69 20.6 94 94 SW 13 20 30.01 1016 10 16 0.61 15.49
2:11 pm 14:11 Cloudy with Nearby Thunderstorms 70 21.1 68 20 93 93 SSW 12 19 30.00 1016 7 11 0.01 0.25
2:24 pm 14:24 Cloudy with Light Rain 70 21.1 68 20 93 93 WSW 10 17 29.99 1016 5 8 0.03 0.76
2:40 pm 14:40 Mostly Cloudy with Thunderstorms 70 21.1 69 20.6 97 97 W 8 13 29.99 1016 7 11 0.04 1.02
2:53 pm 14:53 Partly Cloudy with Nearby Thunderstorms 71 21.7 68 20 90 90 WSW 3 6 29.99 1016 6 10 0.05 1.27
3:06 pm 15:06 Mostly Cloudy with Light Rain 72 22.2 69 20.6 91 91 Calm 29.97 1015 9 14 0.01 0.25
3:53 pm 15:53 Mostly Cloudy with Light Rain 72 22.2 70 21.1 94 94 S 7 11 29.94 1014 7 11 0.08 2.03
4:53 pm 16:53 Partly Cloudy 73 22.8 71 21.7 94 94 Calm 29.91 1013 10 16 0.00 0.00
5:53 pm 17:53 Mostly Sunny 74 23.3 71 21.7 91 91 SW 5 7 29.91 1013 10 16 0.01 0.25
6:24 pm 18:24 Mostly Sunny 74 23.3 72 22.2 94 94 SSW 3 6 29.91 1013 10 16 0.00 0.00
6:53 pm 18:53 Mostly Sunny 74 23.3 71 21.7 91 91 S 6 9 29.91 1013 10 16 0.00 0.00
7:53 pm 19:53 Mostly Sunny 73 22.8 70 21.1 90 90 S 5 7 29.91 1013 10 16 0.00 0.00
8:53 pm 20:53 Partly Cloudy 71 21.7 70 21.1 96 96 WSW 3 6 29.91 1013 10 16 0.00 0.00
9:53 pm 21:53 Clear 71 21.7 70 21.1 96 96 WSW 3 6 29.92 1013 10 16 0.00 0.00
10:53 pm 22:53 Mostly Clear 71 21.7 70 21.1 96 96 Calm 29.91 1013 10 16 0.00 0.00
11:53 pm 23:53 Partly Cloudy 71 21.7 69 20.6 94 94 SW 6 9 29.90 1013 10 16 0.00 0.00

Powered by AerisWeather